{"data":{"norad_id":66149,"intl_designator":"2025-240D","name":"STARLINK-35601","alt_names":[],"object_type":"PAYLOAD","status":"ACTIVE","operator":null,"country":"US","launch_date":"2025-10-25","launch_site_code":"AFWTR","launch_vehicle":null,"mission":null,"orbit_class":"UNKNOWN","rcs_meters":null,"size_class":null,"mass_kg":null,"dimensions":null,"purposes":["comms"],"wikipedia_slug":null,"has_3d_model":false,"image_url":null,"decayed_at":null,"tle_current":{"epoch":"2026-05-25T04:49:38.178912Z","epoch_age_seconds":50955,"freshness":"FRESH","line1":"1 66149U 25240D   26145.20113633  .00027133  00000+0  92462-3 0  9997","line2":"2 66149  53.1580  67.3592 0001188  91.9086 268.2051 15.30208876 33700","mean_motion":15.30208876,"eccentricity":0.0001188,"inclination_deg":53.158,"raan_deg":67.3592,"arg_perigee_deg":91.9086,"mean_anomaly_deg":268.2051,"bstar":0.00092462,"rev_number":3370,"period_min":94.104799846946,"perigee_km":474.37439233393,"apogee_km":476.00274248875,"semimajor_km":6853.3255674113,"source":"CELESTRAK","updated_at":"2026-05-25T13:38:21.069081Z"}}}